{"data":{"norad_id":60912,"epoch":"2026-09-21T08:06:56.022624Z","epoch_age_seconds":116078,"freshness":"FRESH","line1":"1 60912U 24154K   26264.33814841 -.00000517  00000+0  59414-6 0  9998","line2":"2 60912  53.1578 246.7530 0001588  58.9416 301.1758 15.69707110119239","mean_motion":15.6970711,"eccentricity":0.0001588,"inclination_deg":53.1578,"raan_deg":246.753,"arg_perigee_deg":58.9416,"mean_anomaly_deg":301.1758,"bstar":5.9414e-7,"rev_number":11923,"period_min":91.7368591138,"perigee_km":358.66504642938,"apogee_km":360.80499458309,"semimajor_km":6737.8720205062,"source":"CELESTRAK","updated_at":"2026-09-22T09:00:49.284583Z"}}